McGuire AFB, NJ

5:12 AM EDT on August 18, 2017 (GMT -0400)
McGuire Air Force Base

Weather History for KWRI - September, 2012

Change the Weather History Date:

Thursday, September 13, 2012

  Actual Average Record
Temperature  
Mean Temperature 66 °F -  
Max Temperature 80 °F 77 °F 91 °F (2005)
Min Temperature 52 °F 57 °F 48 °F (2006)
Cooling Degree Days 1    
Growing Degree Days 16 (Base 50)    
Moisture  
Dew Point 56 °F    
Average Humidity 71    
Maximum Humidity 94    
Minimum Humidity 45    
Precipitation  
Precipitation 0.00 in - - ()
Sea Level Pressure  
Sea Level Pressure 30.32 in    
Wind  
Wind Speed 1 mph (SSW)    
Max Wind Speed 7 mph    
Max Gust Speed -    
Visibility 10 miles    
Events Rain    
Averages and records for this station are not official NWS values.
T = Trace of Precipitation, MM = Missing Value Source: NWS Daily Summary

Daily Weather History Graph

Daily Weather History Graph

Search for Another Location

Airport or City:

Trip Planner

Search our weather history database for the weather conditions in past years. The results will help you decide how hot, cold, wet, or windy it might be!

Date:

Astronomy

Sep. 13, 2012 Rise Set
Actual Time 6:37 AM EDT 7:09 PM EDT
Civil Twilight 6:10 AM EDT 7:36 PM EDT
Nautical Twilight 5:38 AM EDT 8:08 PM EDT
Astronomical Twilight 5:05 AM EDT 8:41 PM EDT
Moon 3:54 AM EDT (9/13) 5:30 PM EDT (9/13)
Length of Visible Light 13h 26m
Length of Day
12h 31m
Waning Crescent, 7% of the Moon is Illuminated
Sep 13
Waning Crescent
Sep 15
New
Sep 22
First Quarter
Sep 29
Full
Oct 8
Last Quarter

Hourly Weather History & Observations

Time (EDT) Temp. Heat Index Dew Point Humidity Pressure Visibility Wind Dir Wind Speed Gust Speed Precip Events Conditions
12:55 AM 59.0 °F - 54.9 °F 86% 30.35 in 10.0 mi Calm Calm - N/A   Clear
1:55 AM 57.0 °F - 54.3 °F 91% 30.35 in 10.0 mi Calm Calm - N/A   Clear
2:55 AM 55.0 °F - 52.2 °F 90% 30.35 in 10.0 mi Calm Calm - N/A   Clear
3:55 AM 54.5 °F - 52.2 °F 92% 30.34 in 10.0 mi Calm Calm - N/A   Clear
4:55 AM 53.6 °F - 51.6 °F 93% 30.34 in 10.0 mi Calm Calm - N/A   Clear
5:55 AM 52.7 °F - 50.4 °F 92% 30.35 in 10.0 mi Calm Calm - N/A   Clear
6:55 AM 52.7 °F - 50.9 °F 94% 30.37 in 10.0 mi Calm Calm - N/A   Clear
7:55 AM 56.3 °F - 54.0 °F 92% 30.37 in 10.0 mi Calm Calm - N/A   Clear
8:55 AM 63.1 °F - 59.0 °F 86% 30.37 in 10.0 mi Calm Calm - N/A   Clear
9:55 AM 70.3 °F - 59.0 °F 67% 30.38 in 10.0 mi Calm Calm - N/A   Clear
10:55 AM 73.4 °F - 57.2 °F 57% 30.37 in 10.0 mi Variable 3.5 mph - N/A   Clear
11:55 AM 75.6 °F - 55.2 °F 49% 30.37 in 10.0 mi Variable 5.8 mph - N/A   Clear
12:55 PM 77.2 °F - 56.5 °F 49% 30.35 in 10.0 mi West 4.6 mph - N/A   Clear
1:55 PM 78.3 °F - 56.3 °F 47% 30.33 in 10.0 mi Calm Calm - N/A   Clear
2:55 PM 79.7 °F - 56.7 °F 45% 30.31 in 10.0 mi Variable 3.5 mph - N/A   Clear
3:55 PM 79.7 °F - 56.8 °F 45% 30.29 in 10.0 mi Calm Calm - N/A   Clear
4:11 PM 80.6 °F 80.8 °F 57.2 °F 45% 30.29 in 10.0 mi South 4.6 mph - N/A Rain Light Rain
4:19 PM 80.6 °F 80.8 °F 57.2 °F 45% 30.28 in 10.0 mi SW 6.9 mph - N/A   Clear
4:55 PM 79.7 °F - 56.7 °F 45% 30.28 in 10.0 mi WSW 3.5 mph - 0.00 in   Clear
5:55 PM 78.4 °F - 58.5 °F 50% 30.27 in 10.0 mi SSW 5.8 mph - N/A   Clear
6:55 PM 72.0 °F - 60.3 °F 67% 30.27 in 10.0 mi SSE 6.9 mph - N/A   Clear
7:55 PM 67.3 °F - 59.2 °F 75% 30.28 in 10.0 mi SE 4.6 mph - N/A   Clear
8:55 PM 64.9 °F - 59.0 °F 81% 30.28 in 10.0 mi Calm Calm - N/A   Clear
9:55 PM 62.4 °F - 58.5 °F 87% 30.28 in 10.0 mi SSE 3.5 mph - N/A   Clear
10:55 PM 60.4 °F - 57.9 °F 91% 30.27 in 10.0 mi Calm Calm - N/A   Clear
11:55 PM 60.6 °F - 57.6 °F 90% 30.29 in 10.0 mi Calm Calm - N/A   Clear